User: anonymous   Login
Location: Azul
(36.7830°S, 59.8500°W)
Time: 21:01:49
(UTC-03:00)
Language:

CAS-4A - Orbit

View from above orbital plane
View from above orbital plane
View from above satellite
View from above satellite

Ground track
Ground track

The orbit data is extracted from the following two-line orbital elements,

1 42761U 17034D   21296.46151628  .00001265  00000-0  88531-4 0  9991
2 42761  43.0180 196.1841 0009446 252.4181 276.4922 15.10555341240507
Epoch (UTC): 23 October 2021 11:04:35
Eccentricity: 0.0009446
inclination: 43.0180°
perigee height: 528 km
apogee height: 541 km
right ascension of ascending node: 196.1841°
argument of perigee: 252.4181°
revolutions per day: 15.10555341
mean anomaly at epoch: 276.4922°
orbit number at epoch: 24050

The dashed part of the orbit path shows where the satellite is in the earth's shadow,  

DLR